Salt Lake City, UT

5:36 PM MDT on August 19, 2017 (GMT -0600)
Salt Lake City International

Weather History for KSLC - February, 2012

Change the Weather History Date:

Thursday, February 9, 2012

  Actual Average Record
Temperature  
Mean Temperature 39 °F 32 °F  
Max Temperature 45 °F 41 °F 66 °F (2017)
Min Temperature 33 °F 24 °F -30 °F (1933)
Degree Days  
Heating Degree Days 26 33  
Month to date heating degree days 263 302  
Since 1 July heating degree days 3449 3696  
Cooling Degree Days 0 0  
Month to date cooling degree days 0 0  
Year to date cooling degree days 0 0  
Moisture  
Dew Point 32 °F    
Average Humidity 75    
Maximum Humidity 92    
Minimum Humidity 58    
Precipitation  
Precipitation T in 0.04 in 0.41 in (1976)
Month to date precipitation 0.08 0.37  
Year to date precipitation 1.87 1.62  
Snow  
Snow 0.00 in 0.40 in 4.50 in (1965)
Month to date snowfall 0.5 3.5  
Since 1 July snowfall 13.0 38.2  
Snow Depth 0.00 in    
Sea Level Pressure  
Sea Level Pressure 30.34 in    
Wind  
Wind Speed 3 mph (SE)    
Max Wind Speed 8 mph    
Max Gust Speed 9 mph    
Visibility 10 miles    
Events Rain    
T = Trace of Precipitation, MM = Missing Value Source: NWS Daily Summary

Daily Weather History Graph

Daily Weather History Graph

Search for Another Location

Airport or City:

Trip Planner

Search our weather history database for the weather conditions in past years. The results will help you decide how hot, cold, wet, or windy it might be!

Date:

Astronomy

Feb. 09, 2012 Rise Set
Actual Time 7:29 AM MST 5:54 PM MST
Civil Twilight 7:01 AM MST 6:23 PM MST
Nautical Twilight 6:29 AM MST 6:55 PM MST
Astronomical Twilight 5:57 AM MST 7:27 PM MST
Moon 8:29 PM MST (2/9) 8:06 AM MST (2/9)
Length of Visible Light 11h 21m
Length of Day
10h 24m
Waning Gibbous, 95% of the Moon is Illuminated
Feb 9
Waning Gibbous
Feb 14
Last Quarter
Feb 21
New
Feb 29
First Quarter
Mar 8
Full

Hourly Weather History & Observations

Time (MST) Temp. Windchill Dew Point Humidity Pressure Visibility Wind Dir Wind Speed Gust Speed Precip Events Conditions
12:53 AM 36.0 °F - 33.1 °F 89% 30.37 in 10.0 mi Calm Calm - N/A   Overcast
1:53 AM 36.0 °F 33.3 °F 32.0 °F 86% 30.36 in 10.0 mi ESE 3.5 mph - N/A   Overcast
2:53 AM 36.0 °F 30.3 °F 32.0 °F 86% 30.36 in 10.0 mi SE 6.9 mph - N/A   Mostly Cloudy
3:53 AM 35.1 °F 30.1 °F 30.9 °F 85% 30.33 in 10.0 mi South 5.8 mph - N/A   Mostly Cloudy
4:53 AM 33.1 °F 26.9 °F 28.9 °F 85% 30.35 in 10.0 mi SE 6.9 mph - N/A   Mostly Cloudy
5:53 AM 34.0 °F 28.8 °F 30.0 °F 85% 30.36 in 10.0 mi SE 5.8 mph - N/A   Mostly Cloudy
6:53 AM 34.0 °F 31.0 °F 30.0 °F 85% 30.38 in 10.0 mi SW 3.5 mph - N/A   Overcast
7:53 AM 34.0 °F - 30.0 °F 85% 30.39 in 8.0 mi Calm Calm - 0.00 in Rain Light Rain
8:53 AM 36.0 °F - 32.0 °F 86% 30.38 in 8.0 mi Calm Calm - 0.00 in   Mostly Cloudy
9:53 AM 37.9 °F 34.4 °F 33.1 °F 83% 30.39 in 9.0 mi South 4.6 mph - N/A   Overcast
10:53 AM 41.0 °F 39.0 °F 33.1 °F 73% 30.38 in 9.0 mi SSE 3.5 mph - N/A   Overcast
11:53 AM 42.1 °F 40.2 °F 33.1 °F 70% 30.38 in 10.0 mi East 3.5 mph - N/A   Overcast
12:53 PM 43.0 °F - 32.0 °F 65% 30.35 in 10.0 mi Calm Calm - N/A   Overcast
1:53 PM 44.1 °F - 30.9 °F 60% 30.34 in 10.0 mi Calm Calm - 0.00 in Rain Light Rain
2:53 PM 45.0 °F - 30.9 °F 58% 30.32 in 10.0 mi Calm Calm - 0.00 in   Overcast
3:53 PM 45.0 °F - 30.0 °F 56% 30.32 in 10.0 mi Calm Calm - N/A   Mostly Cloudy
4:53 PM 44.1 °F 41.5 °F 30.9 °F 60% 30.31 in 10.0 mi NNW 4.6 mph - N/A   Mostly Cloudy
5:53 PM 42.1 °F 38.4 °F 32.0 °F 67% 30.33 in 10.0 mi North 5.8 mph - N/A   Overcast
6:53 PM 41.0 °F 39.0 °F 30.9 °F 67% 30.33 in 10.0 mi North 3.5 mph - N/A   Overcast
7:53 PM 41.0 °F - 32.0 °F 70% 30.33 in 10.0 mi Calm Calm - N/A   Overcast
8:53 PM 39.9 °F - 32.0 °F 73% 30.33 in 10.0 mi Calm Calm - N/A   Overcast
9:53 PM 39.0 °F - 32.0 °F 76% 30.33 in 10.0 mi Calm Calm - 0.00 in Rain Light Rain
10:53 PM 39.9 °F 37.8 °F 33.1 °F 77% 30.30 in 10.0 mi SE 3.5 mph - 0.00 in   Overcast
11:53 PM 37.9 °F 35.5 °F 33.1 °F 83% 30.29 in 10.0 mi SSW 3.5 mph - 0.00 in   Overcast